FW6182 Weather Reports


Display with metric or nautical units.
time (UTC)temp
F
wind
direction
speed
MPH
gust
MPH
rain 1hr
in
rain 24hr
in
rain mn
in
humidity
%
barometer
mb
20260507114246 39 17 0.0 14.0 0.00 0.00 0.00 91 226.6
20260507113744 38 16 0.0 14.0 0.00 0.00 0.00 90 243.1
20260507113244 38 96 0.0 14.0 0.00 0.00 0.00 89 274.0
20260507112742 38 15 0.0 14.0 0.00 0.00 0.00 89 204.2
20260507112241 38 15 0.0 14.0 0.00 0.00 0.00 89 206.7
20260507111741 38 15 0.0 14.0 0.00 0.00 0.00 89 211.8
20260507111240 38 15 0.0 14.0 0.00 0.00 0.00 89 221.6
20260507104636 38 31 0.0 14.0 0.00 0.00 0.00 89 266.5
20260507104136 38 31 0.0 14.0 0.00 0.00 0.00 88 284.5
20260507103635 38 40 0.0 14.0 0.00 0.00 0.00 88 311.8
20260507101548 38 24 0.0 14.0 0.00 0.00 0.00 88 252.7
20260507101047 39 25 0.0 14.0 0.00 0.00 0.00 88 273.8
20260507100546 39 55 0.0 14.0 0.00 0.00 0.00 88 315.2
20260507100046 39 46 0.0 14.0 0.00 0.00 0.00 88 316.4
20260507095545 39 64 0.0 14.0 0.00 0.00 0.00 89 345.7
20260507094012 39 71 0.0 14.0 0.00 0.00 0.00 88 366.3
20260507093511 39 64 0.0 14.0 0.00 0.00 0.00 88 362.1
20260507091939 39 68 0.0 14.0 0.00 0.00 0.00 88 329.0
20260507085853 40 44 0.0 14.0 0.00 0.00 0.00 88 279.9
20260507084836 40 18 0.0 14.0 0.00 0.00 0.00 88 269.8
20260507083304 40 106 0.0 14.0 0.00 0.00 0.00 88 355.8
20260507082804 40 63 0.0 14.0 0.00 0.00 0.00 88 317.9
20260507082306 40 52 0.0 14.0 0.00 0.00 0.00 88 338.0
20260507081803 40 64 0.0 14.0 0.00 0.00 0.00 88 346.6
20260507081302 41 60 0.0 14.0 0.00 0.00 0.00 88 350.7
20260507075730 40 61 0.0 14.0 0.00 0.00 0.00 88 374.7
20260507075230 40 79 0.0 14.0 0.00 0.00 0.00 88 366.2
20260507074729 40 43 0.0 14.0 0.00 0.00 0.00 87 327.3
20260507072642 41 60 0.0 14.0 0.00 0.00 0.00 87 326.9
20260507072141 41 54 0.0 14.0 0.00 0.00 0.00 87 318.4
20260507071640 41 54 0.0 14.0 0.00 0.00 0.00 87 320.2
20260507071139 41 55 0.0 14.0 0.00 0.00 0.00 87 327.8
20260507070122 41 72 0.0 14.0 0.00 0.00 0.00 87 305.9
20260507065106 41 38 0.0 14.0 0.00 0.00 0.00 87 286.4
20260507063018 41 44 0.0 14.0 0.00 0.00 0.00 87 329.4
20260507060931 41 75 0.0 14.0 0.00 0.00 0.00 87 339.8
20260507060430 41 72 0.0 14.0 0.00 0.00 0.00 86 304.7
20260507055929 41 38 0.0 14.0 0.00 0.00 0.00 86 263.4
20260507054914 41 34 0.0 14.0 0.00 0.00 0.00 85 277.1
20260507053858 42 35 0.0 14.0 0.00 0.00 0.00 85 326.5
20260507051254 42 90 0.0 14.0 0.00 0.00 0.00 85 380.0
20260507050753 42 62 0.0 14.0 0.00 0.00 0.00 85 329.2
20260507050252 43 22 0.0 14.0 0.00 0.00 0.00 85 300.6
20260507045751 43 42 0.0 14.0 0.00 0.00 0.00 85 321.7
20260507044219 43 66 0.0 14.0 0.00 0.00 0.00 85 331.2
20260507042646 44 73 0.0 14.0 0.00 0.00 0.00 84 364.5
20260507042146 44 63 0.0 14.0 0.00 0.00 0.00 84 362.7
20260507041645 44 67 0.0 14.0 0.00 0.00 0.00 83 375.8
20260507040628 44 84 0.0 14.0 0.00 0.00 0.00 82 396.6
20260507040127 44 74 0.0 14.0 0.00 0.00 0.00 82 377.2
20260507035626 44 76 0.0 14.0 0.00 0.00 0.00 81 374.0
20260507032505 45 66 0.0 14.0 0.00 0.00 0.00 79 349.9
20260507031448 45 72 0.0 14.0 0.00 0.00 0.00 79 414.7
20260507030947 46 83 0.0 14.0 0.00 0.00 0.00 78 436.2
20260507030447 46 100 0.0 14.0 0.00 0.00 0.00 77 450.1
20260507025430 47 109 0.0 14.0 0.00 0.00 0.00 77 429.0
20260507024930 47 87 0.0 14.0 0.00 0.00 0.00 76 402.5
20260507023357 48 72 0.0 14.0 0.00 0.00 0.00 74 326.8
20260507021824 49 42 0.0 14.0 0.00 0.00 0.00 70 296.7
20260507020807 50 48 0.0 14.0 0.00 0.00 0.00 69 325.6
20260507020306 50 58 0.0 14.0 0.00 0.00 0.00 68 348.6
20260507015805 51 73 0.0 14.0 0.00 0.00 0.00 66 366.7
20260507015306 51 85 0.0 14.0 0.00 0.00 0.00 65 327.6
20260507014248 53 37 0.0 14.0 0.00 0.00 0.00 64 290.6
20260507012716 55 60 0.0 14.0 0.00 0.00 0.00 61 294.7
20260507012215 55 47 0.0 14.0 0.00 0.00 0.00 57 261.8
20260507011715 56 25 0.0 14.0 0.00 0.00 0.00 54 254.0
20260507011214 56 29 0.0 14.0 0.00 0.00 0.00 51 277.4
20260507010713 56 40 1.0 14.0 0.00 0.00 0.00 54 292.3
20260507005141 57 63 2.0 14.0 0.00 0.00 0.00 49 370.4
20260507004640 57 80 2.0 14.0 0.00 0.00 0.00 49 369.9
20260507003623 58 72 2.0 14.0 0.00 0.00 0.00 47 373.0
20260507003123 59 44 3.0 14.0 0.00 0.00 0.00 46 363.4
20260507001550 60 83 3.0 14.0 0.00 0.00 0.00 44 651.3
20260507000533 60 5 4.0 14.0 0.00 0.00 0.00 42 713.8
20260507000032 60 113 6.0 14.0 0.00 0.00 0.00 43 649.8
20260506234500 60 223 4.0 14.0 0.00 0.00 0.00 42 827.7
20260506233959 60 212 5.0 14.0 0.00 0.00 0.00 43 798.5
20260506232943 60 146 7.0 14.0 0.00 0.00 0.00 42 713.1
20260506232442 61 137 5.0 14.0 0.00 0.00 0.00 41 716.4
20260506230909 60 228 8.0 14.0 0.00 0.00 0.00 43 764.6
20260506224305 61 120 8.0 15.0 0.00 0.00 0.00 40 709.2
20260506223805 61 202 7.0 14.0 0.00 0.00 0.00 42 736.8
20260506221715 62 357 5.0 13.0 0.00 0.00 0.00 42 1062.2
20260506221215 61 9 8.0 13.0 0.00 0.00 0.00 41 907.4
20260506220157 61 211 5.0 13.0 0.00 0.00 0.00 42 838.0
20260506214624 61 220 6.0 14.0 0.00 0.00 0.00 45 861.7
20260506214124 61 23 7.0 14.0 0.00 0.00 0.00 42 979.1
20260506213624 61 11 5.0 13.0 0.00 0.00 0.00 42 934.5
20260506213123 61 5 9.0 13.0 0.00 0.00 0.00 42 824.3
20260506212106 61 186 6.0 13.0 0.00 0.00 0.00 45 794.7
20260506211605 61 359 6.0 13.0 0.00 0.00 0.00 40 824.0
20260506210547 60 68 6.0 14.0 0.00 0.00 0.00 42 678.0
20260506205531 60 36 5.0 16.0 0.00 0.00 0.00 39 745.6
20260506205030 60 121 9.0 16.0 0.00 0.00 0.00 42 727.6
20260506204528 61 179 11.0 16.0 0.00 0.00 0.00 43 755.4
20260506200337 60 202 9.0 13.0 0.00 0.00 0.00 42 719.7
20260506195836 60 93 4.0 15.0 0.00 0.00 0.00 43 701.5
20260506195335 60 197 9.0 15.0 0.00 0.00 0.00 42 822.7
20260506193801 59 107 7.0 16.0 0.00 0.00 0.00 41 588.1
20260506191714 60 34 9.0 13.0 0.00 0.00 0.00 42 803.1
20260506191213 60 44 6.0 13.0 0.00 0.00 0.00 43 732.7
20260506190156 60 170 9.0 16.0 0.00 0.00 0.00 41 822.2
20260506185655 60 51 12.0 16.0 0.00 0.00 0.00 42 978.2
20260506185154 60 356 7.0 16.0 0.00 0.00 0.00 42 983.2
20260506184137 60 22 5.0 14.0 0.00 0.00 0.00 47 720.9
20260506183636 60 57 6.0 14.0 0.00 0.00 0.00 45 685.6
20260506182104 59 161 3.0 13.0 0.00 0.00 0.00 46 716.1
20260506180531 59 92 8.0 15.0 0.00 0.00 0.00 46 771.2
20260506174958 59 148 9.0 13.0 0.00 0.00 0.00 50 817.3
20260506172911 58 32 6.0 13.0 0.00 0.00 0.00 52 678.3
20260506165751 58 357 5.0 13.0 0.00 0.00 0.00 54 881.6
20260506165250 58 0 8.0 13.0 0.00 0.00 0.00 55 871.4
20260506164234 57 58 9.0 15.0 0.00 0.00 0.00 54 704.9
20260506162701 57 13 8.0 14.0 0.00 0.00 0.00 58 1039.5
20260506162200 56 354 9.0 14.0 0.00 0.00 0.00 58 1048.7
20260506155556 55 0 9.0 11.0 0.00 0.00 0.00 61 960.0
20260506155055 56 40 6.0 11.0 0.00 0.00 0.00 60 874.4
20260506154038 55 20 7.0 11.0 0.00 0.00 0.00 58 901.9
20260506153537 55 0 8.0 11.0 0.00 0.00 0.00 61 1030.8
20260506150418 54 60 6.0 11.0 0.00 0.00 0.00 64 801.6
20260506145917 54 12 7.0 11.0 0.00 0.00 0.00 64 815.4
20260506145416 54 30 7.0 11.0 0.00 0.00 0.00 64 805.1
20260506144915 54 16 6.0 11.0 0.00 0.00 0.00 67 799.4
20260506144414 53 50 6.0 11.0 0.00 0.00 0.00 67 870.7
20260506143914 52 22 5.0 11.0 0.00 0.00 0.00 69 900.7
20260506143413 52 357 4.0 11.0 0.00 0.00 0.00 72 931.5
20260506142912 52 51 5.0 11.0 0.00 0.00 0.00 71 756.4
20260506141340 52 53 4.0 11.0 0.00 0.00 0.00 71 1028.5
20260506140840 52 356 5.0 11.0 0.00 0.00 0.00 72 1219.2
20260506140339 51 354 3.0 14.0 0.00 0.00 0.00 72 1214.8
20260506135839 51 357 3.0 14.0 0.00 0.00 0.00 73 1215.2
20260506135339 51 352 3.0 14.0 0.00 0.00 0.00 72 1204.7
20260506134838 52 352 2.0 14.0 0.00 0.00 0.00 76 1203.8
20260506134338 52 351 4.0 14.0 0.00 0.00 0.00 75 1204.4
20260506133837 52 355 4.0 14.0 0.00 0.00 0.00 78 1198.4
20260506133336 51 342 5.0 14.0 0.00 0.00 0.00 77 1173.1
20260506132319 50 316 4.0 14.0 0.00 0.00 0.00 80 1109.8
20260506131818 49 329 1.0 14.0 0.00 0.00 0.00 83 1094.5
20260506131317 49 339 3.0 14.0 0.00 0.00 0.00 83 1043.1
20260506130817 48 338 1.0 14.0 0.00 0.00 0.00 83 916.8
20260506125801 47 31 2.0 14.0 0.00 0.00 0.00 84 248.5
20260506125300 47 65 2.0 14.0 0.00 0.00 0.00 84 252.3
20260506124759 47 15 1.0 14.0 0.00 0.00 0.00 84 210.9
20260506124258 47 4 1.0 14.0 0.00 0.00 0.00 85 204.1
20260506123758 47 7 0.0 14.0 0.00 0.00 0.00 85 228.3
20260506121709 46 10 1.0 14.0 0.00 0.00 0.00 86 225.7
20260506120653 46 17 2.0 14.0 0.00 0.00 0.00 85 303.6
20260506115636 46 90 2.0 14.0 0.00 0.00 0.00 86 388.0
20260506115135 46 49 3.0 14.0 0.00 0.00 0.00 86 336.3
20260506114634 46 65 3.0 14.0 0.00 0.00 0.00 86 339.9